Location: Kimberly
(42.5380°N, 114.3640°W)
Time: 01:17:11
(UTC-07:00)

Tiangong 1 - Visible Passes

Search period start: 14 December 2017 00:00
Search period end: 24 December 2017 00:00
Orbit: 275 x 302 km, 42.8° (Epoch: 13 December)

Date Brightness Start Highest point End Pass type
(mag) Time Alt. Az. Time Alt. Az. Time Alt. Az.
19 Dec 3.5 06:40:59 10° S 06:42:31 15° SSE 06:44:02 10° ESE visible
20 Dec 2.7 06:43:49 10° SW 06:45:57 24° SSE 06:48:05 10° E visible
21 Dec 1.6 06:47:38 16° SW 06:49:19 40° SSE 06:51:43 10° E visible
22 Dec 0.7 06:51:14 22° WSW 06:52:37 63° SSE 06:55:07 10° E visible
23 Dec 0.4 06:54:34 25° W 06:55:49 86° S 06:58:20 10° E visible
